Weather in Mostar

Bosnia and Herzegovina     43°20′56″N   17°47′26″E
temp.,
°C
wind,
m/s
gust,
m/s
humid.,
%
clouds,
%
prec.,
mm/h
press.,
hPa
HPBL,
m
6 march, sat
sat601:00+7nne228469 0.1 102330
04:00+4nne51170100 0.1 1024444
07:00+3nne497292 0.1 1026346
10:00+7nne58526 0.0 1027760
13:00+9nne68463 0.0 1027822
16:00+8nne68490 0.0 1027660
19:00+3nne47600 0.0 1029308
22:00+2nne35670 0.0 1030144
7 march, sun
sun701:000nne33670 0.0 103074
04:000nne22660 0.0 102852
07:00+1nne22610 0.0 102858
10:00+8w11430 0.0 1026383
13:00+11ssw21370 0.0 1024901
16:00+10ssw22451 0.0 1021717
19:00+5e006517 0.0 102222
22:00+4ne11671 0.0 102222
8 march, mon
mon801:00+3ne116641 0.0 102122
04:00+3ne116494 0.0 101922
07:00+4ne116394 0.0 101922
10:00+8wsw0151100 0.0 1018310
13:00+9sse1161100 0.1 1018562
16:00+9sw2269100 0.0 1016455
19:00+7ne1186100 0.4 101729
22:00+7nne1283100 0.1 101840
9 march, tue
tue901:00+6ne2277100 0.1 101875
04:00+5nne3474100 0.0 1017117
07:00+5nne3474100 0.0 1017136
10:00+10nne345398 0.0 1016772
13:00+13n234586 0.0 10151487
16:00+12nne135483 0.0 10151007
19:00+7nne236986 0.1 101770
22:00+5nne34731 0.0 1018107
10 march, wed
wed1001:00+4nne33715 0.0 101969
04:00+3nne337156 0.0 101975
07:00+3nne347028 0.0 1020139
10:00+10nne46450 0.0 1020844
13:00+13nne44370 0.0 10201362
16:00+12nne45420 0.0 10201061
19:00+6ne46580 0.0 1021113
22:00+4nne33660 0.0 102462